Date String (YYYY-MM-DD hh:mm:ss) UTC,Instrument flags,absolute air pressure of the measurement (hPa),sample flow rate (lpm),inlet stack bypass flow (lpm),air temperature of the measurement (°C),ambient temperature measured by the external sensor (°C),aerosol sample conditioner tube jacket temperature (°C),OPC LED temperature (°C),internal box temperature (°C),relative humidity of the measurement (%),span deviation,mass concentration of particles derived from Lorenz-Mie calculation of OPC scattering (μg/m³),mass concentration of particles derived from Lorenz-Mie calculation of OPC scattering (μg/m³),mass concentration of particles derived from Lorenz-Mie calculation of OPC scattering (μg/m³)
DateTimeUTC,F1_M11,P_M11,Q1_M11,Q2_M11,T1_M11,T2_M11,T3_M11,T4_M11,T5_M11,U1_M11,ZSPAN_M11,X0_M11,X2_M11,X1_M11
2024-03-24 09:00:00,SystemResetWarning,0811.1,5.00,000.00,023.1,022.3,000.0,031.8,025.0,19.8,0000.0,0019.81,0007.10,0005.54
2024-03-24 09:01:00,SystemResetWarning,0811.1,5.00,000.00,023.1,022.3,000.0,031.8,025.0,19.8,0000.0,0020.13,0007.14,0005.57
2024-03-24 09:02:00,SystemResetWarning,0811.0,5.00,000.00,023.1,022.3,000.0,031.8,025.0,20.0,0000.0,0020.78,0007.15,0005.59
2024-03-24 09:03:00,SystemResetWarning,0810.9,5.00,000.00,023.1,022.3,000.0,031.8,025.0,20.1,0000.0,0019.88,0007.15,0005.59
2024-03-24 09:04:00,SystemResetWarning,0810.9,4.99,000.00,023.1,022.3,000.0,031.8,025.0,20.3,0000.8,0019.12,0007.16,0005.62
2024-03-24 09:05:00,SystemResetWarning,0810.9,5.00,000.00,023.1,022.3,000.0,031.8,025.0,20.6,0000.7,0019.31,0007.24,0005.69
2024-03-24 09:06:00,SystemResetWarning,0811.0,5.01,000.00,023.1,022.3,000.0,031.8,025.0,20.6,0000.6,0020.45,0007.31,0005.76
2024-03-24 09:07:00,SystemResetWarning,0811.1,5.00,000.00,023.1,022.2,000.0,031.8,025.0,20.6,0002.7,0021.71,0007.40,0005.82
2024-03-24 09:08:00,SystemResetWarning,0811.1,5.00,000.00,023.1,022.3,000.0,031.8,025.0,20.6,0001.9,0021.36,0007.42,0005.89
2024-03-24 09:09:00,SystemResetWarning,0811.1,5.00,000.00,023.1,022.2,000.0,031.8,025.0,20.5,0002.1,0021.80,0007.46,0005.95
2024-03-24 09:10:00,SystemResetWarning,0811.1,5.00,000.00,023.1,022.2,000.0,031.8,025.0,20.3,0001.9,0023.09,0007.54,0005.98
2024-03-24 09:11:00,SystemResetWarning,0811.0,5.00,000.00,023.1,022.2,000.0,031.8,025.0,20.3,0001.8,0023.88,0007.57,0006.03
2024-03-24 09:12:00,SystemResetWarning,0811.0,5.00,000.00,023.1,022.2,000.0,031.8,024.9,20.4,0001.8,0023.93,0007.63,0006.09
2024-03-24 09:13:00,SystemResetWarning,0811.0,5.00,000.00,023.1,022.2,000.0,031.7,024.9,20.5,0001.4,0024.41,0007.75,0006.17
2024-03-24 09:14:00,SystemResetWarning,0811.0,5.00,000.00,023.0,022.2,000.0,031.7,024.9,20.7,0001.4,0024.79,0007.92,0006.26
2024-03-24 09:15:00,SystemResetWarning,0810.9,5.00,000.00,023.0,022.2,000.0,031.7,024.9,20.8,0001.0,0025.43,0008.04,0006.35
2024-03-24 09:16:00,SystemResetWarning,0810.9,5.00,000.00,023.0,022.2,000.0,031.7,024.9,20.9,0001.1,0025.54,0008.15,0006.43
2024-03-24 09:17:00,SystemResetWarning,0810.8,5.01,000.00,023.0,022.2,000.0,031.7,024.9,21.0,0001.7,0024.65,0008.27,0006.53
2024-03-24 09:18:00,SystemResetWarning,0810.8,5.00,000.00,023.0,022.2,000.0,031.7,024.9,21.0,0001.9,0024.30,0008.44,0006.64
2024-03-24 09:19:00,SystemResetWarning,0810.8,5.00,000.00,023.0,022.2,000.0,031.7,024.9,21.1,0002.7,0024.88,0008.62,0006.77
2024-03-24 09:20:00,SystemResetWarning,0810.9,4.99,000.00,023.0,022.2,000.0,031.7,024.9,21.1,0002.7,0025.37,0008.82,0006.94
2024-03-24 09:21:00,SystemResetWarning,0810.9,4.99,000.00,023.0,022.2,000.0,031.7,024.9,21.2,0002.8,0024.41,0009.02,0007.15
2024-03-24 09:22:00,SystemResetWarning,0811.0,5.00,000.00,023.0,022.1,000.0,031.7,024.9,21.2,0002.5,0024.74,0009.24,0007.33
2024-03-24 09:23:00,SystemResetWarning,0811.0,4.99,000.00,023.0,022.1,000.0,031.7,024.9,21.2,0002.4,0025.76,0009.39,0007.47
2024-03-24 09:24:00,SystemResetWarning,0810.9,5.00,000.00,023.0,022.1,000.0,031.7,024.9,21.2,0002.9,0025.77,0009.57,0007.62
2024-03-24 09:25:00,SystemResetWarning,0810.8,5.01,000.00,023.0,022.1,000.0,031.7,024.9,21.2,0003.5,0025.65,0009.68,0007.80
2024-03-24 09:26:00,SystemResetWarning,0811.0,5.01,000.00,023.0,022.0,000.0,031.7,024.9,21.3,0003.5,0025.34,0009.77,0007.96
2024-03-24 09:27:00,SystemResetWarning,0811.1,4.99,000.00,022.9,022.0,000.0,031.6,024.8,21.3,0003.5,0026.76,0010.01,0008.15
2024-03-24 09:28:00,SystemResetWarning,0811.1,5.00,000.00,022.9,022.0,000.0,031.6,024.8,21.3,0003.0,0027.99,0010.26,0008.31
2024-03-24 09:29:00,SystemResetWarning,0811.1,5.00,000.00,022.9,022.0,000.0,031.6,024.8,21.3,0002.7,0028.09,0010.49,0008.48
2024-03-24 09:30:00,SystemResetWarning,0811.1,5.00,000.00,022.9,022.0,000.0,031.6,024.8,21.3,0001.8,0029.60,0010.74,0008.69
2024-03-24 09:31:00,SystemResetWarning,0811.1,5.00,000.00,022.9,022.0,000.0,031.6,024.8,21.3,0001.5,0029.54,0010.95,0008.84
2024-03-24 09:32:00,SystemResetWarning,0811.1,5.00,000.00,022.9,021.9,000.0,031.6,024.8,21.3,0001.5,0030.09,0011.13,0008.99
2024-03-24 09:33:00,SystemResetWarning,0811.1,5.00,000.00,022.9,021.9,000.0,031.6,024.8,21.3,0001.5,0029.83,0011.28,0009.17
2024-03-24 09:34:00,SystemResetWarning,0811.1,5.00,000.00,022.9,021.9,000.0,031.6,024.8,21.2,0001.8,0029.02,0011.46,0009.31
2024-03-24 09:35:00,SystemResetWarning,0811.1,5.00,000.00,022.9,021.9,000.0,031.6,024.8,21.2,0001.9,0029.51,0011.60,0009.44
2024-03-24 09:36:00,SystemResetWarning,0811.2,5.01,000.00,022.8,021.9,000.0,031.6,024.8,21.2,0001.5,0030.27,0011.74,0009.53
2024-03-24 09:37:00,SystemResetWarning,0811.2,5.00,000.00,022.8,021.9,000.0,031.6,024.8,21.2,0001.2,0031.14,0011.87,0009.58
2024-03-24 09:38:00,SystemResetWarning,0811.1,5.01,000.00,022.8,021.9,000.0,031.6,024.8,21.2,0001.2,0031.96,0011.89,0009.59
2024-03-24 09:39:00,SystemResetWarning,0811.0,5.00,000.00,022.8,021.9,000.0,031.5,024.8,21.2,0001.2,0032.29,0011.85,0009.59
2024-03-24 09:40:00,SystemResetWarning,0811.0,5.00,000.00,022.8,021.9,000.0,031.5,024.7,21.2,0001.5,0032.76,0011.84,0009.61
2024-03-24 09:41:00,SystemResetWarning,0811.0,5.00,000.00,022.8,021.9,000.0,031.5,024.7,21.2,0001.9,0032.13,0011.85,0009.64
2024-03-24 09:42:00,SystemResetWarning,0811.0,4.99,000.00,022.8,021.9,000.0,031.5,024.7,21.2,0002.1,0031.96,0011.91,0009.73
2024-03-24 09:43:00,SystemResetWarning,0811.0,5.01,000.00,022.8,021.9,000.0,031.5,024.7,21.1,0001.9,0032.13,0012.04,0009.83
2024-03-24 09:44:00,SystemResetWarning,0811.1,5.00,000.00,022.8,021.9,000.0,031.5,024.7,21.1,0002.3,0032.12,0012.18,0009.93
2024-03-24 09:45:00,SystemResetWarning,0811.1,5.00,000.00,022.8,021.9,000.0,031.5,024.7,21.1,0001.5,0031.99,0012.38,0010.05
2024-03-24 09:46:00,SystemResetWarning,0811.1,5.00,000.00,022.8,021.9,000.0,031.5,024.7,21.1,0000.8,0031.89,0012.55,0010.20
2024-03-24 09:47:00,SystemResetWarning,0811.1,5.00,000.00,022.8,021.9,000.0,031.5,024.7,21.1,0000.5,0033.02,0012.72,0010.34
2024-03-24 09:48:00,SystemResetWarning,0811.1,4.99,000.00,022.8,021.9,000.0,031.5,024.7,21.1,0000.3,0032.94,0012.89,0010.49
2024-03-24 09:49:00,SystemResetWarning,0811.1,5.00,000.00,022.8,021.9,000.0,031.5,024.7,21.1,0000.4,0032.32,0013.00,0010.63
2024-03-24 09:50:00,SystemResetWarning,0811.0,5.00,000.00,022.7,021.9,000.0,031.4,024.7,21.1,0000.4,0031.42,0013.21,0010.77
2024-03-24 09:51:00,SystemResetWarning,0811.0,4.99,000.00,022.7,021.9,000.0,031.4,024.6,21.2,0000.2,0030.94,0013.39,0010.94
2024-03-24 09:52:00,SystemResetWarning,0811.0,5.00,000.00,022.7,021.9,000.0,031.4,024.6,21.2,0000.6,0030.73,0013.48,0011.04
2024-03-24 09:53:00,SystemResetWarning,0811.1,5.00,000.00,022.7,021.9,000.0,031.4,024.6,21.2,0000.7,0030.80,0013.56,0011.09
2024-03-24 09:54:00,SystemResetWarning,0811.1,5.01,000.00,022.7,021.9,000.0,031.4,024.6,21.2,0000.9,0031.17,0013.56,0011.14
2024-03-24 09:55:00,SystemResetWarning,0811.0,5.00,000.00,022.7,021.8,000.0,031.4,024.6,21.2,0001.1,0030.67,0013.55,0011.17
2024-03-24 09:56:00,SystemResetWarning,0811.0,5.00,000.00,022.7,021.8,000.0,031.4,024.6,21.2,0001.6,0033.04,0013.63,0011.24
2024-03-24 09:57:00,SystemResetWarning,0810.9,5.00,000.00,022.7,021.8,000.0,031.4,024.6,21.2,0001.9,0033.75,0013.70,0011.32
2024-03-24 09:58:00,SystemResetWarning,0811.0,5.00,000.00,022.7,021.8,000.0,031.4,024.6,21.2,0001.8,0033.84,0013.80,0011.44
2024-03-24 09:59:00,SystemResetWarning,0811.0,5.01,000.00,022.7,021.8,000.0,031.4,024.6,21.2,0002.0,0035.07,0013.94,0011.53
